Flag for France Weather past 2 weeks in Marseille, France

Now
72 °F

Passing clouds.


Feels Like: 77 °F
Forecast: 63 / 73 °F
Wind: 5 mph from West

Location: Marseille / Marignane

Current Time: May 25, 2015 at 12:05:46 PM

Latest Report: May 25, 2015 at 11:30 AM


Visibility: N/A

Pressure: 29.92 "Hg

Humidity: 50%

Dew point: 52 °F

Location of MarseilleLocation

Historic Weather in Marseille — Graph

°F

Marseille temperature yesterday

Maximum temperature yesterday: 73 °F (at 1:30 PM)
Minimum temperature yesterday: 54 °F (at 6:00 AM)
Average temperature yesterday: 65 °F

Past Weeks' High & Low Weather Summary

 TemperatureHumidityPressure
High82 °F (May 10, 3:30 PM)100% (May 12, 7:00 AM)30.24 "Hg (May 12, 7:00 AM)
Low48 °F (May 23, 6:00 AM)24% (May 20, 5:30 PM)29.74 "Hg (May 14, 7:00 PM)
Average65 °F56%30.00 "Hg
* Reported May 10 11:00 AM — May 25 11:00 AM, Marseille, Weather by CustomWeather, © 2015

Note: Actual official high and low records may vary slightly from our data, if they occured in-between our weather recording intervals... More about our weather records

Advertising

Marseille weather history for previous 24 hours

 ConditionsComfort  
Time TempWeatherWind HumidityBarometerVisibility
11:00 AM
Mon, May 25
72 °FSunny.2 mph47%29.92 "Hg10 mi
10:30 AM70 °FPassing clouds.5 mph50%29.92 "HgN/A
10:00 AM68 °FSunny.3 mph56%29.95 "Hg10 mi
9:30 AM66 °FPassing clouds.5 mph56%29.95 "HgN/A
9:00 AM64 °FSunny.3 mph64%29.95 "Hg10 mi
8:30 AM64 °FSunny.No wind60%29.95 "Hg10 mi
8:00 AM59 °FSunny.No wind72%29.95 "Hg10 mi
7:30 AM57 °FSunny.6 mph77%29.95 "Hg10 mi
7:00 AM54 °FClear.6 mph82%29.95 "Hg10 mi
6:30 AM52 °FClear.6 mph82%29.95 "Hg10 mi
6:00 AM54 °FClear.3 mph77%29.92 "Hg10 mi
5:30 AM52 °FClear.6 mph82%29.92 "Hg10 mi
5:00 AM54 °FClear.6 mph77%29.92 "Hg10 mi
4:30 AM54 °FClear.2 mph77%29.95 "Hg10 mi
4:00 AM54 °FClear.2 mph77%29.95 "Hg10 mi
3:30 AM55 °FClear.3 mph72%29.95 "Hg10 mi
3:00 AM55 °FClear.6 mph72%29.95 "Hg10 mi
2:30 AM55 °FClear.5 mph72%29.95 "Hg10 mi
2:00 AM57 °FClear.5 mph67%29.95 "Hg10 mi
1:30 AM57 °FClear.2 mph67%29.98 "Hg10 mi
1:00 AM59 °FClear.3 mph68%29.98 "Hg10 mi
12:30 AM61 °FClear.6 mph63%29.98 "Hg10 mi
12:00 AM61 °FClear.3 mph59%29.98 "Hg10 mi
11:30 PM
Sun, May 24
61 °FClear.5 mph59%29.98 "Hg10 mi
11:00 PM63 °FClear.6 mph56%29.98 "Hg10 mi
10:30 PM63 °FClear.7 mph56%29.98 "Hg10 mi
10:00 PM63 °FPassing clouds.6 mph59%29.98 "HgN/A
9:30 PM63 °FSunny.6 mph59%29.95 "Hg10 mi
9:00 PM64 °FSunny.5 mph56%29.95 "Hg10 mi
8:30 PM66 °FSunny.7 mph49%29.95 "Hg10 mi
8:00 PM68 °FSunny.9 mph49%29.95 "Hg10 mi
7:30 PM70 °FSunny.8 mph40%29.95 "Hg10 mi
7:00 PM70 °FSunny.7 mph40%29.95 "Hg10 mi
6:30 PM70 °FPassing clouds.8 mph40%29.95 "HgN/A
6:00 PM70 °FPassing clouds.8 mph38%29.95 "HgN/A
5:30 PM70 °FPassing clouds.12 mph38%29.95 "HgN/A
5:00 PM72 °FSunny.15 mph38%29.95 "Hg10 mi
4:30 PM73 °FSunny.14 mph41%29.95 "Hg10 mi
4:00 PM73 °FPassing clouds.10 mph33%29.98 "HgN/A
3:30 PM73 °FPassing clouds.6 mph33%29.98 "HgN/A
3:00 PM73 °FPassing clouds.6 mph33%29.98 "HgN/A
2:30 PM72 °FPassing clouds.7 mph33%29.98 "HgN/A
2:00 PM73 °FSunny.9 mph36%29.98 "Hg10 mi
1:30 PM73 °FSunny.10 mph33%29.98 "Hg10 mi
1:00 PM72 °FPassing clouds.7 mph38%29.98 "HgN/A
12:30 PM72 °FSunny.6 mph44%29.98 "Hg10 mi
12:00 PM70 °FSunny.3 mph46%29.98 "Hg10 mi
Weather by CustomWeather, © 2015

See weather overviewHow to use our weather pages